| time (UTC) | temp F | wind direction | speed MPH | gust MPH | rain 1hr in | rain 24hr in | rain mn in | humidity % | barometer mb |
| 20260902012059 | 79 | 0 | 0.0 | 0.0 | 0.00 | 0.16 | 0.16 | 94 | 998.1 |
| 20260902011559 | 79 | 0 | 0.0 | 0.0 | 0.00 | 0.16 | 0.16 | 94 | 998.1 |
| 20260902011059 | 79 | 0 | 0.0 | 0.0 | 0.00 | 0.16 | 0.16 | 94 | 998.1 |
| 20260902010559 | 79 | 0 | 0.0 | 0.0 | 0.00 | 0.16 | 0.16 | 94 | 998.1 |
| 20260902010100 | 79 | 0 | 0.0 | 0.0 | 0.00 | 0.16 | 0.16 | 93 | 998.2 |
| 20260902005600 | 79 | 0 | 0.0 | 0.0 | 0.00 | 0.16 | 0.16 | 93 | 998.3 |
| 20260902005100 | 79 | 0 | 0.0 | 0.0 | 0.00 | 0.16 | 0.16 | 93 | 998.2 |
| 20260902004602 | 79 | 0 | 0.0 | 0.0 | 0.00 | 0.16 | 0.16 | 93 | 998.4 |
| 20260902004055 | 79 | 0 | 0.0 | 0.0 | 0.00 | 0.16 | 0.16 | 93 | 998.4 |
| 20260902003556 | 80 | 0 | 0.0 | 0.0 | 0.00 | 0.16 | 0.16 | 93 | 998.6 |
| 20260902003055 | 80 | 0 | 0.0 | 0.0 | 0.00 | 0.16 | 0.16 | 93 | 998.6 |
| 20260902002554 | 80 | 0 | 0.0 | 0.0 | 0.00 | 0.16 | 0.16 | 93 | 998.5 |
| 20260902002056 | 79 | 0 | 0.0 | 0.0 | 0.00 | 0.16 | 0.16 | 93 | 998.4 |
| 20260902001555 | 79 | 0 | 0.0 | 0.0 | 0.00 | 0.16 | 0.16 | 92 | 998.3 |
| 20260902001054 | 80 | 0 | 0.0 | 0.0 | 0.01 | 0.16 | 0.16 | 92 | 998.3 |
| 20260902000554 | 79 | 0 | 0.0 | 0.0 | 0.02 | 0.16 | 0.16 | 92 | 998.2 |
| 20260902000055 | 79 | 0 | 0.0 | 0.0 | 0.03 | 0.16 | 0.16 | 92 | 998.2 |
| 20260901235644 | 79 | 0 | 0.0 | 0.0 | 0.04 | 0.16 | 0.16 | 92 | 998.3 |
| 20260901234819 | 79 | 0 | 0.0 | 0.0 | 0.06 | 0.16 | 0.16 | 91 | 998.4 |
| 20260901234051 | 79 | 0 | 0.0 | 0.0 | 0.06 | 0.16 | 0.16 | 91 | 998.5 |
| 20260901233813 | 79 | 0 | 0.0 | 0.0 | 0.07 | 0.19 | 0.16 | 91 | 998.5 |
| 20260901233050 | 79 | 0 | 0.0 | 0.0 | 0.08 | 0.32 | 0.16 | 91 | 998.5 |
| 20260901232551 | 79 | 0 | 0.0 | 0.0 | 0.10 | 0.33 | 0.16 | 90 | 998.5 |
| 20260901232051 | 79 | 0 | 0.0 | 0.0 | 0.12 | 0.33 | 0.16 | 90 | 998.5 |
| 20260901231553 | 79 | 0 | 0.0 | 0.0 | 0.15 | 0.33 | 0.16 | 89 | 998.6 |
| 20260901231533 | 79 | 0 | 0.0 | 1.0 | 0.14 | 0.32 | 0.15 | 89 | 998.7 |
| 20260901230546 | 79 | 0 | 0.0 | 1.0 | 0.13 | 0.31 | 0.14 | 89 | 998.8 |
| 20260901230046 | 79 | 0 | 0.0 | 0.0 | 0.12 | 0.30 | 0.13 | 88 | 998.9 |
| 20260901225545 | 79 | 0 | 0.0 | 0.0 | 0.11 | 0.29 | 0.12 | 88 | 999.0 |
| 20260901225306 | 80 | 0 | 0.0 | 0.0 | 0.10 | 0.28 | 0.11 | 87 | 999.0 |
| 20260901225028 | 80 | 0 | 0.0 | 1.0 | 0.09 | 0.27 | 0.10 | 86 | 999.2 |
| 20260901224043 | 80 | 0 | 0.0 | 1.0 | 0.09 | 0.27 | 0.10 | 86 | 999.2 |
| 20260901223811 | 80 | 0 | 0.0 | 1.0 | 0.08 | 0.26 | 0.09 | 84 | 999.3 |
| 20260901223306 | 81 | 0 | 1.0 | 3.0 | 0.07 | 0.25 | 0.09 | 84 | 999.4 |
| 20260901222542 | 82 | 0 | 2.0 | 4.0 | 0.05 | 0.23 | 0.06 | 83 | 999.6 |
| 20260901222533 | 83 | 0 | 2.0 | 10.0 | 0.03 | 0.21 | 0.04 | 80 | 999.7 |
| 20260901221541 | 85 | 0 | 2.0 | 10.0 | 0.00 | 0.18 | 0.01 | 77 | 999.5 |
| 20260901221040 | 87 | 0 | 3.0 | 8.0 | 0.00 | 0.18 | 0.01 | 74 | 999.4 |
| 20260901220541 | 88 | 0 | 3.0 | 12.0 | 0.00 | 0.18 | 0.01 | 73 | 999.7 |
| 20260901220040 | 89 | 0 | 2.0 | 12.0 | 0.00 | 0.18 | 0.01 | 69 | 999.5 |
| 20260901215538 | 91 | 350 | 1.0 | 4.0 | 0.00 | 0.18 | 0.01 | 68 | 999.3 |
| 20260901215037 | 91 | 101 | 0.0 | 2.0 | 0.00 | 0.18 | 0.01 | 69 | 998.8 |
| 20260901214536 | 91 | 42 | 0.0 | 1.0 | 0.00 | 0.18 | 0.01 | 69 | 998.8 |
| 20260901214257 | 91 | 42 | 0.0 | 2.0 | 0.00 | 0.18 | 0.01 | 69 | 998.7 |
| 20260901213535 | 92 | 0 | 0.0 | 2.0 | 0.00 | 0.18 | 0.01 | 68 | 998.7 |
| 20260901213246 | 92 | 342 | 0.0 | 1.0 | 0.00 | 0.18 | 0.01 | 67 | 998.7 |
| 20260901212746 | 92 | 26 | 0.0 | 0.0 | 0.00 | 0.18 | 0.01 | 68 | 998.6 |
| 20260901212024 | 92 | 0 | 0.0 | 1.0 | 0.00 | 0.18 | 0.01 | 69 | 998.6 |
| 20260901211520 | 92 | 0 | 0.0 | 1.0 | 0.00 | 0.18 | 0.01 | 68 | 998.6 |
| 20260901211020 | 92 | 11 | 0.0 | 2.0 | 0.00 | 0.18 | 0.01 | 67 | 998.6 |
| 20260901210519 | 92 | 58 | 1.0 | 2.0 | 0.00 | 0.18 | 0.01 | 67 | 998.6 |
| 20260901210018 | 92 | 14 | 0.0 | 2.0 | 0.00 | 0.18 | 0.01 | 67 | 998.7 |
| 20260901205518 | 92 | 0 | 0.0 | 2.0 | 0.00 | 0.18 | 0.01 | 67 | 998.7 |
| 20260901205504 | 92 | 271 | 0.0 | 2.0 | 0.00 | 0.18 | 0.01 | 70 | 998.7 |
| 20260901204518 | 91 | 348 | 0.0 | 2.0 | 0.00 | 0.18 | 0.01 | 70 | 998.7 |
| 20260901204500 | 91 | 19 | 1.0 | 2.0 | 0.00 | 0.18 | 0.01 | 71 | 998.7 |
| 20260901203514 | 91 | 348 | 1.0 | 3.0 | 0.00 | 0.18 | 0.01 | 71 | 998.9 |
| 20260901203016 | 91 | 0 | 1.0 | 3.0 | 0.00 | 0.18 | 0.01 | 71 | 999.0 |
| 20260901202512 | 91 | 0 | 1.0 | 3.0 | 0.00 | 0.18 | 0.01 | 71 | 999.1 |
| 20260901202012 | 91 | 346 | 1.0 | 3.0 | 0.00 | 0.18 | 0.01 | 73 | 999.2 |
| 20260901201729 | 91 | 0 | 1.0 | 3.0 | 0.00 | 0.18 | 0.01 | 74 | 999.3 |
| 20260901201007 | 91 | 50 | 1.0 | 3.0 | 0.00 | 0.18 | 0.01 | 74 | 999.5 |
| 20260901200506 | 90 | 17 | 1.0 | 2.0 | 0.00 | 0.18 | 0.01 | 74 | 999.7 |
| 20260901200013 | 90 | 0 | 0.0 | 2.0 | 0.00 | 0.18 | 0.01 | 75 | 999.8 |
| 20260901195502 | 90 | 340 | 0.0 | 0.0 | 0.00 | 0.18 | 0.01 | 76 | 1000.0 |
| 20260901195002 | 90 | 200 | 0.0 | 0.0 | 0.00 | 0.18 | 0.01 | 76 | 1000.1 |
| 20260901194454 | 90 | 200 | 0.0 | 0.0 | 0.00 | 0.18 | 0.01 | 76 | 1000.2 |
| 20260901193953 | 90 | 11 | 0.0 | 0.0 | 0.00 | 0.18 | 0.01 | 77 | 1000.2 |
| 20260901193454 | 89 | 16 | 0.0 | 0.0 | 0.00 | 0.18 | 0.01 | 78 | 1000.3 |
| 20260901192954 | 89 | 11 | 0.0 | 0.0 | 0.00 | 0.18 | 0.01 | 78 | 1000.2 |
| 20260901192717 | 89 | 17 | 0.0 | 0.0 | 0.00 | 0.18 | 0.01 | 78 | 1000.1 |
| 20260901191950 | 89 | 22 | 0.0 | 0.0 | 0.00 | 0.18 | 0.01 | 77 | 1000.0 |
| 20260901191450 | 89 | 0 | 0.0 | 0.0 | 0.00 | 0.18 | 0.01 | 78 | 1000.0 |
| 20260901190951 | 89 | 0 | 0.0 | 0.0 | 0.00 | 0.18 | 0.01 | 78 | 999.9 |
| 20260901190451 | 89 | 0 | 0.0 | 0.0 | 0.00 | 0.18 | 0.01 | 80 | 1000.0 |
| 20260901185950 | 88 | 69 | 0.0 | 0.0 | 0.00 | 0.18 | 0.01 | 80 | 1000.1 |
| 20260901185451 | 88 | 0 | 0.0 | 0.0 | 0.00 | 0.18 | 0.01 | 79 | 1000.2 |
| 20260901184949 | 88 | 0 | 0.0 | 0.0 | 0.00 | 0.18 | 0.01 | 80 | 1000.2 |
| 20260901184450 | 88 | 27 | 0.0 | 0.0 | 0.00 | 0.18 | 0.01 | 81 | 1000.1 |
| 20260901183950 | 87 | 292 | 0.0 | 0.0 | 0.00 | 0.18 | 0.01 | 81 | 1000.2 |
| 20260901183450 | 87 | 284 | 0.0 | 0.0 | 0.00 | 0.18 | 0.01 | 82 | 1000.3 |
| 20260901182950 | 87 | 41 | 0.0 | 0.0 | 0.00 | 0.18 | 0.01 | 83 | 1000.5 |
| 20260901182712 | 87 | 0 | 0.0 | 0.0 | 0.00 | 0.18 | 0.01 | 83 | 1000.6 |
| 20260901181952 | 87 | 0 | 0.0 | 1.0 | 0.00 | 0.18 | 0.01 | 84 | 1000.6 |
| 20260901181707 | 86 | 0 | 0.0 | 1.0 | 0.00 | 0.18 | 0.01 | 83 | 1000.7 |
| 20260901180946 | 86 | 0 | 0.0 | 0.0 | 0.00 | 0.18 | 0.01 | 85 | 1000.8 |
| 20260901180447 | 86 | 0 | 0.0 | 0.0 | 0.00 | 0.18 | 0.01 | 85 | 1000.9 |
| 20260901180205 | 86 | 0 | 0.0 | 2.0 | 0.00 | 0.18 | 0.01 | 85 | 1000.9 |
| 20260901175446 | 86 | 17 | 0.0 | 2.0 | 0.00 | 0.18 | 0.01 | 85 | 1001.0 |
| 20260901175215 | 85 | 348 | 0.0 | 2.0 | 0.00 | 0.18 | 0.01 | 86 | 1001.0 |
| 20260901174446 | 85 | 289 | 0.0 | 2.0 | 0.00 | 0.18 | 0.01 | 86 | 1001.2 |
| 20260901173946 | 85 | 0 | 0.0 | 2.0 | 0.00 | 0.18 | 0.01 | 87 | 1001.2 |
| 20260901173446 | 85 | 40 | 0.0 | 2.0 | 0.00 | 0.18 | 0.01 | 87 | 1001.4 |
| 20260901172941 | 85 | 36 | 0.0 | 2.0 | 0.00 | 0.18 | 0.01 | 88 | 1001.5 |
| 20260901172442 | 85 | 0 | 0.0 | 0.0 | 0.00 | 0.18 | 0.01 | 89 | 1001.6 |
| 20260901171942 | 85 | 0 | 0.0 | 0.0 | 0.00 | 0.18 | 0.01 | 89 | 1001.7 |
| 20260901171443 | 85 | 0 | 0.0 | 1.0 | 0.00 | 0.18 | 0.01 | 90 | 1001.8 |
| 20260901171202 | 84 | 283 | 0.0 | 2.0 | 0.00 | 0.18 | 0.01 | 89 | 1001.9 |
| 20260901170442 | 84 | 0 | 0.0 | 2.0 | 0.00 | 0.18 | 0.01 | 90 | 1002.0 |
| 20260901165942 | 84 | 31 | 0.0 | 1.0 | 0.00 | 0.18 | 0.01 | 90 | 1002.0 |
| 20260901165442 | 84 | 31 | 0.0 | 1.0 | 0.00 | 0.18 | 0.01 | 91 | 1002.1 |
| 20260901164942 | 84 | 32 | 0.0 | 1.0 | 0.00 | 0.18 | 0.01 | 91 | 1002.1 |
| 20260901164438 | 84 | 325 | 0.0 | 0.0 | 0.00 | 0.18 | 0.01 | 91 | 1002.1 |
| 20260901164205 | 84 | 315 | 0.0 | 0.0 | 0.00 | 0.18 | 0.01 | 92 | 1002.0 |
| 20260901163438 | 84 | 314 | 0.0 | 0.0 | 0.00 | 0.18 | 0.01 | 91 | 1002.0 |
| 20260901162938 | 84 | 314 | 0.0 | 0.0 | 0.00 | 0.18 | 0.01 | 93 | 1002.0 |
| 20260901162437 | 84 | 0 | 0.0 | 2.0 | 0.00 | 0.18 | 0.01 | 93 | 1002.0 |
| 20260901161937 | 83 | 311 | 1.0 | 2.0 | 0.00 | 0.18 | 0.01 | 93 | 1002.0 |
| 20260901161438 | 83 | 275 | 0.0 | 2.0 | 0.00 | 0.18 | 0.01 | 93 | 1001.9 |
| 20260901160939 | 83 | 70 | 0.0 | 0.0 | 0.00 | 0.18 | 0.01 | 94 | 1001.9 |
| 20260901160657 | 83 | 0 | 0.0 | 0.0 | 0.00 | 0.18 | 0.01 | 94 | 1001.9 |
| 20260901155934 | 83 | 0 | 0.0 | 0.0 | 0.00 | 0.18 | 0.01 | 95 | 1001.9 |
| 20260901155434 | 83 | 0 | 0.0 | 0.0 | 0.00 | 0.18 | 0.01 | 95 | 1001.9 |
| 20260901154934 | 82 | 0 | 0.0 | 0.0 | 0.00 | 0.18 | 0.01 | 95 | 1001.9 |
| 20260901154434 | 82 | 0 | 0.0 | 0.0 | 0.00 | 0.18 | 0.01 | 96 | 1001.8 |
| 20260901153934 | 82 | 0 | 0.0 | 0.0 | 0.00 | 0.18 | 0.01 | 96 | 1001.8 |
| 20260901153652 | 82 | 0 | 0.0 | 0.0 | 0.00 | 0.18 | 0.01 | 96 | 1001.9 |
| 20260901152934 | 82 | 0 | 0.0 | 0.0 | 0.00 | 0.18 | 0.01 | 97 | 1002.0 |
| 20260901152434 | 81 | 0 | 0.0 | 0.0 | 0.00 | 0.18 | 0.01 | 97 | 1002.0 |
| 20260901152205 | 81 | 0 | 0.0 | 0.0 | 0.00 | 0.18 | 0.01 | 97 | 1002.0 |
| 20260901151430 | 81 | 0 | 0.0 | 0.0 | 0.00 | 0.18 | 0.01 | 97 | 1002.0 |
| 20260901150930 | 81 | 0 | 0.0 | 0.0 | 0.00 | 0.18 | 0.01 | 98 | 1001.9 |
| 20260901150430 | 81 | 0 | 0.0 | 0.0 | 0.00 | 0.18 | 0.01 | 98 | 1001.9 |
| 20260901145930 | 81 | 0 | 0.0 | 0.0 | 0.00 | 0.18 | 0.01 | 98 | 1002.0 |
| 20260901145431 | 81 | 0 | 0.0 | 0.0 | 0.00 | 0.18 | 0.01 | 99 | 1002.0 |
| 20260901144929 | 80 | 0 | 0.0 | 0.0 | 0.00 | 0.18 | 0.01 | 98 | 1002.0 |
| 20260901144431 | 80 | 0 | 0.0 | 0.0 | 0.00 | 0.18 | 0.01 | 99 | 1002.0 |
| 20260901143930 | 80 | 0 | 0.0 | 0.0 | 0.00 | 0.18 | 0.01 | 99 | 1002.1 |
| 20260901143430 | 80 | 0 | 0.0 | 0.0 | 0.00 | 0.18 | 0.01 | 99 | 1002.1 |
| 20260901142929 | 80 | 0 | 0.0 | 0.0 | 0.00 | 0.18 | 0.01 | 99 | 1002.1 |
| 20260901142430 | 80 | 0 | 0.0 | 0.0 | 0.00 | 0.18 | 0.01 | 99 | 1002.1 |
| 20260901141930 | 80 | 0 | 0.0 | 0.0 | 0.00 | 0.18 | 0.01 | 99 | 1002.0 |
| 20260901141430 | 80 | 0 | 0.0 | 2.0 | 0.00 | 0.18 | 0.01 | 99 | 1002.0 |
| 20260901140930 | 79 | 0 | 0.0 | 2.0 | 0.00 | 0.18 | 0.01 | 99 | 1002.0 |
| 20260901140431 | 79 | 0 | 0.0 | 0.0 | 0.00 | 0.18 | 0.01 | 99 | 1002.1 |
| 20260901140418 | 79 | 0 | 0.0 | 0.0 | 0.00 | 0.18 | 0.01 | 99 | 1002.1 |
| 20260901135428 | 79 | 0 | 0.0 | 0.0 | 0.00 | 0.18 | 0.01 | 99 | 1002.2 |
| 20260901134929 | 79 | 0 | 0.0 | 0.0 | 0.00 | 0.18 | 0.01 | 99 | 1002.0 |
| 20260901134426 | 79 | 0 | 0.0 | 0.0 | 0.00 | 0.18 | 0.01 | 99 | 1002.1 |
| 20260901133925 | 78 | 0 | 0.0 | 0.0 | 0.00 | 0.18 | 0.01 | 99 | 1002.0 |
| 20260901133644 | 78 | 0 | 0.0 | 0.0 | 0.00 | 0.18 | 0.01 | 99 | 1001.9 |
| 20260901132920 | 78 | 0 | 0.0 | 0.0 | 0.00 | 0.18 | 0.01 | 99 | 1002.0 |
| 20260901132420 | 78 | 0 | 0.0 | 0.0 | 0.00 | 0.18 | 0.01 | 99 | 1001.9 |
| 20260901131918 | 77 | 0 | 0.0 | 0.0 | 0.00 | 0.18 | 0.01 | 99 | 1001.9 |
| 20260901131416 | 77 | 0 | 0.0 | 0.0 | 0.00 | 0.18 | 0.01 | 98 | 1001.9 |
| 20260901130914 | 77 | 0 | 0.0 | 0.0 | 0.00 | 0.18 | 0.01 | 98 | 1001.7 |
| 20260901130631 | 77 | 0 | 0.0 | 0.0 | 0.00 | 0.18 | 0.01 | 98 | 1001.7 |
| 20260901125907 | 77 | 0 | 0.0 | 0.0 | 0.00 | 0.18 | 0.01 | 98 | 1001.8 |
| 20260901125408 | 77 | 0 | 0.0 | 0.0 | 0.00 | 0.18 | 0.01 | 98 | 1001.7 |
| 20260901124907 | 77 | 0 | 0.0 | 0.0 | 0.00 | 0.18 | 0.01 | 98 | 1001.6 |
| 20260901124402 | 77 | 0 | 0.0 | 0.0 | 0.00 | 0.18 | 0.01 | 97 | 1001.6 |
| 20260901124123 | 77 | 0 | 0.0 | 0.0 | 0.00 | 0.18 | 0.01 | 97 | 1001.6 |
| 20260901123621 | 77 | 0 | 0.0 | 0.0 | 0.00 | 0.18 | 0.01 | 97 | 1001.5 |
| 20260901122858 | 77 | 0 | 0.0 | 0.0 | 0.00 | 0.18 | 0.01 | 97 | 1001.5 |
| 20260901122356 | 77 | 0 | 0.0 | 0.0 | 0.00 | 0.18 | 0.01 | 97 | 1001.4 |
| 20260901121855 | 77 | 0 | 0.0 | 0.0 | 0.00 | 0.18 | 0.01 | 97 | 1001.2 |
| 20260901121356 | 77 | 0 | 0.0 | 0.0 | 0.00 | 0.18 | 0.01 | 97 | 1001.2 |
| 20260901120852 | 77 | 0 | 0.0 | 0.0 | 0.00 | 0.18 | 0.01 | 97 | 1001.1 |
| 20260901120353 | 77 | 0 | 0.0 | 0.0 | 0.00 | 0.18 | 0.01 | 97 | 1001.0 |
| 20260901115941 | 77 | 0 | 0.0 | 0.0 | 0.00 | 0.18 | 0.01 | 97 | 1001.1 |
| 20260901114848 | 77 | 0 | 0.0 | 0.0 | 0.00 | 0.18 | 0.01 | 97 | 1001.1 |
| 20260901114342 | 77 | 0 | 0.0 | 0.0 | 0.00 | 0.18 | 0.01 | 97 | 1001.0 |
| 20260901113842 | 77 | 0 | 0.0 | 0.0 | 0.00 | 0.18 | 0.01 | 97 | 1001.0 |
| 20260901113339 | 77 | 0 | 0.0 | 0.0 | 0.00 | 0.18 | 0.01 | 97 | 1001.0 |
| 20260901112837 | 77 | 0 | 0.0 | 0.0 | 0.00 | 0.18 | 0.01 | 97 | 1000.9 |
| 20260901112337 | 77 | 0 | 0.0 | 0.0 | 0.00 | 0.18 | 0.01 | 97 | 1000.9 |
| 20260901111836 | 77 | 0 | 0.0 | 0.0 | 0.00 | 0.18 | 0.01 | 97 | 1000.9 |
| 20260901111551 | 77 | 0 | 0.0 | 0.0 | 0.00 | 0.18 | 0.01 | 97 | 1000.9 |
| 20260901111536 | 77 | 360 | 0.0 | 0.0 | 0.00 | 0.18 | 0.01 | 97 | 1008.7 |
| 20260901110834 | 77 | 0 | 0.0 | 0.0 | 0.00 | 0.18 | 0.01 | 97 | 1001.0 |
| 20260901110334 | 77 | 0 | 0.0 | 0.0 | 0.00 | 0.18 | 0.01 | 97 | 1000.9 |
| 20260901105833 | 77 | 0 | 0.0 | 0.0 | 0.00 | 0.18 | 0.01 | 97 | 1000.9 |
| 20260901105557 | 77 | 0 | 0.0 | 0.0 | 0.00 | 0.18 | 0.01 | 97 | 1000.9 |
| 20260901104830 | 77 | 0 | 0.0 | 0.0 | 0.00 | 0.18 | 0.01 | 97 | 1000.8 |
| 20260901104329 | 77 | 0 | 0.0 | 0.0 | 0.00 | 0.18 | 0.01 | 97 | 1000.8 |
| 20260901103829 | 77 | 0 | 0.0 | 0.0 | 0.00 | 0.18 | 0.01 | 96 | 1000.8 |
| 20260901103326 | 77 | 0 | 0.0 | 0.0 | 0.00 | 0.18 | 0.01 | 96 | 1000.7 |
| 20260901102827 | 77 | 0 | 0.0 | 0.0 | 0.00 | 0.18 | 0.01 | 96 | 1000.8 |
| 20260901102325 | 77 | 0 | 0.0 | 0.0 | 0.00 | 0.18 | 0.01 | 96 | 1000.7 |
| 20260901101825 | 77 | 0 | 0.0 | 0.0 | 0.00 | 0.18 | 0.01 | 96 | 1000.7 |
| 20260901101321 | 77 | 0 | 0.0 | 0.0 | 0.00 | 0.18 | 0.01 | 96 | 1000.7 |
| 20260901100821 | 77 | 0 | 0.0 | 0.0 | 0.00 | 0.18 | 0.01 | 96 | 1000.6 |
| 20260901100321 | 77 | 0 | 0.0 | 0.0 | 0.00 | 0.18 | 0.01 | 96 | 1000.6 |
| 20260901095818 | 77 | 0 | 0.0 | 0.0 | 0.00 | 0.18 | 0.01 | 96 | 1000.6 |
| 20260901095318 | 78 | 0 | 0.0 | 0.0 | 0.00 | 0.18 | 0.01 | 96 | 1000.6 |
| 20260901094819 | 78 | 0 | 0.0 | 0.0 | 0.00 | 0.18 | 0.01 | 96 | 1000.7 |
| 20260901094320 | 78 | 0 | 0.0 | 0.0 | 0.00 | 0.18 | 0.01 | 96 | 1000.7 |
| 20260901094044 | 78 | 0 | 0.0 | 0.0 | 0.00 | 0.18 | 0.01 | 96 | 1000.7 |
| 20260901093318 | 78 | 0 | 0.0 | 0.0 | 0.00 | 0.18 | 0.01 | 96 | 1000.7 |
| 20260901092817 | 78 | 0 | 0.0 | 0.0 | 0.00 | 0.18 | 0.01 | 96 | 1000.6 |
| 20260901092317 | 78 | 0 | 0.0 | 0.0 | 0.00 | 0.18 | 0.01 | 96 | 1000.6 |
| 20260901091818 | 78 | 0 | 0.0 | 0.0 | 0.00 | 0.18 | 0.01 | 96 | 1000.6 |
| 20260901091538 | 78 | 0 | 0.0 | 0.0 | 0.00 | 0.18 | 0.01 | 96 | 1000.7 |
| 20260901090817 | 78 | 0 | 0.0 | 0.0 | 0.00 | 0.18 | 0.01 | 96 | 1000.8 |
| 20260901090542 | 78 | 0 | 0.0 | 0.0 | 0.00 | 0.18 | 0.01 | 96 | 1000.8 |
| 20260901085818 | 78 | 0 | 0.0 | 0.0 | 0.00 | 0.18 | 0.01 | 96 | 1000.8 |
| 20260901085317 | 78 | 0 | 0.0 | 0.0 | 0.00 | 0.18 | 0.01 | 96 | 1000.8 |
| 20260901084817 | 78 | 0 | 0.0 | 0.0 | 0.00 | 0.18 | 0.01 | 96 | 1000.8 |
| 20260901084318 | 78 | 0 | 0.0 | 0.0 | 0.00 | 0.18 | 0.01 | 96 | 1000.9 |
| 20260901084041 | 78 | 0 | 0.0 | 0.0 | 0.00 | 0.18 | 0.01 | 96 | 1000.9 |
| 20260901083317 | 78 | 0 | 0.0 | 0.0 | 0.00 | 0.18 | 0.01 | 96 | 1000.9 |
| 20260901082817 | 78 | 0 | 0.0 | 0.0 | 0.00 | 0.18 | 0.01 | 96 | 1000.9 |
| 20260901082318 | 78 | 0 | 0.0 | 0.0 | 0.00 | 0.18 | 0.01 | 96 | 1000.9 |
| 20260901081819 | 78 | 0 | 0.0 | 0.0 | 0.00 | 0.18 | 0.01 | 96 | 1000.8 |
| 20260901081317 | 78 | 0 | 0.0 | 0.0 | 0.00 | 0.18 | 0.01 | 96 | 1000.9 |
| 20260901080818 | 79 | 0 | 0.0 | 0.0 | 0.00 | 0.18 | 0.01 | 96 | 1000.9 |
| 20260901080313 | 79 | 0 | 0.0 | 0.0 | 0.01 | 0.18 | 0.01 | 96 | 1000.9 |
| 20260901075813 | 79 | 0 | 0.0 | 0.0 | 0.01 | 0.18 | 0.01 | 96 | 1001.0 |
| 20260901075312 | 79 | 0 | 0.0 | 0.0 | 0.01 | 0.18 | 0.01 | 96 | 1001.0 |
| 20260901075032 | 79 | 0 | 0.0 | 0.0 | 0.01 | 0.18 | 0.01 | 96 | 1000.9 |
| 20260901074315 | 79 | 0 | 0.0 | 0.0 | 0.01 | 0.18 | 0.01 | 96 | 1001.0 |
| 20260901073814 | 79 | 0 | 0.0 | 0.0 | 0.01 | 0.18 | 0.01 | 96 | 1000.9 |
| 20260901073313 | 79 | 0 | 0.0 | 0.0 | 0.01 | 0.18 | 0.01 | 96 | 1001.0 |
| 20260901072813 | 79 | 0 | 0.0 | 0.0 | 0.01 | 0.18 | 0.01 | 96 | 1001.0 |
| 20260901072313 | 79 | 0 | 0.0 | 0.0 | 0.01 | 0.18 | 0.01 | 95 | 1001.0 |
| 20260901071809 | 79 | 0 | 0.0 | 0.0 | 0.01 | 0.18 | 0.01 | 95 | 1001.0 |
| 20260901071309 | 79 | 0 | 0.0 | 0.0 | 0.01 | 0.18 | 0.01 | 95 | 1001.1 |
| 20260901070809 | 79 | 0 | 0.0 | 0.0 | 0.01 | 0.18 | 0.01 | 95 | 1001.0 |
| 20260901070309 | 79 | 0 | 0.0 | 0.0 | 0.00 | 0.17 | 0.00 | 95 | 1001.0 |
| 20260901065809 | 79 | 0 | 0.0 | 0.0 | 0.00 | 0.17 | 0.00 | 95 | 1001.0 |
| 20260901065309 | 79 | 0 | 0.0 | 0.0 | 0.00 | 0.17 | 0.00 | 95 | 1001.0 |
| 20260901064808 | 79 | 0 | 0.0 | 0.0 | 0.00 | 0.17 | 0.00 | 95 | 1001.0 |
| 20260901064308 | 79 | 0 | 0.0 | 0.0 | 0.00 | 0.17 | 0.00 | 95 | 1001.1 |
| 20260901064031 | 79 | 0 | 0.0 | 0.0 | 0.00 | 0.17 | 0.00 | 95 | 1001.1 |
| 20260901063525 | 79 | 0 | 0.0 | 0.0 | 0.00 | 0.17 | 0.00 | 95 | 1001.1 |
| 20260901062805 | 79 | 0 | 0.0 | 0.0 | 0.00 | 0.17 | 0.00 | 95 | 1001.2 |
| 20260901062309 | 79 | 0 | 0.0 | 0.0 | 0.00 | 0.17 | 0.00 | 95 | 1001.2 |
| 20260901061805 | 79 | 0 | 0.0 | 0.0 | 0.00 | 0.17 | 0.00 | 95 | 1001.2 |
| 20260901061305 | 79 | 0 | 0.0 | 0.0 | 0.00 | 0.17 | 0.00 | 95 | 1001.3 |
| 20260901060804 | 79 | 0 | 0.0 | 0.0 | 0.00 | 0.17 | 0.00 | 95 | 1001.3 |
| 20260901060305 | 79 | 0 | 0.0 | 0.0 | 0.00 | 0.17 | 0.00 | 95 | 1001.3 |
| 20260901060027 | 79 | 0 | 0.0 | 0.0 | 0.00 | 0.17 | 0.00 | 95 | 1001.3 |
| 20260901055306 | 79 | 0 | 0.0 | 0.0 | 0.00 | 0.17 | 0.00 | 95 | 1001.3 |
| 20260901054801 | 79 | 0 | 0.0 | 0.0 | 0.00 | 0.17 | 0.00 | 95 | 1001.2 |
| 20260901054301 | 79 | 0 | 0.0 | 0.0 | 0.00 | 0.17 | 0.00 | 95 | 1001.2 |
| 20260901053800 | 79 | 0 | 0.0 | 0.0 | 0.00 | 0.17 | 0.00 | 94 | 1001.2 |
| 20260901053300 | 79 | 0 | 0.0 | 0.0 | 0.00 | 0.17 | 0.00 | 94 | 1001.1 |
| 20260901052802 | 79 | 0 | 0.0 | 0.0 | 0.00 | 0.17 | 0.00 | 94 | 1001.1 |
| 20260901052306 | 80 | 0 | 0.0 | 0.0 | 0.00 | 0.17 | 0.00 | 94 | 1001.1 |
| 20260901051802 | 80 | 0 | 0.0 | 0.0 | 0.00 | 0.17 | 0.00 | 94 | 1001.1 |
| 20260901051302 | 80 | 0 | 0.0 | 0.0 | 0.00 | 0.17 | 0.00 | 94 | 1001.0 |
| 20260901050803 | 80 | 0 | 0.0 | 0.0 | 0.00 | 0.17 | 0.00 | 94 | 1001.0 |
| 20260901050259 | 80 | 0 | 0.0 | 0.0 | 0.00 | 0.17 | 0.00 | 94 | 1000.9 |
| 20260901045753 | 80 | 0 | 0.0 | 0.0 | 0.00 | 0.17 | 0.17 | 94 | 1000.9 |
| 20260901045253 | 80 | 0 | 0.0 | 0.0 | 0.00 | 0.17 | 0.17 | 94 | 1000.9 |
| 20260901044752 | 80 | 0 | 0.0 | 0.0 | 0.00 | 0.17 | 0.17 | 94 | 1000.8 |
| 20260901044510 | 80 | 0 | 0.0 | 0.0 | 0.00 | 0.17 | 0.17 | 94 | 1000.9 |
| 20260901043747 | 80 | 0 | 0.0 | 0.0 | 0.00 | 0.17 | 0.17 | 94 | 1000.8 |
| 20260901043245 | 80 | 0 | 0.0 | 0.0 | 0.00 | 0.17 | 0.17 | 94 | 1000.8 |
| 20260901043008 | 80 | 0 | 0.0 | 0.0 | 0.00 | 0.17 | 0.17 | 94 | 1000.8 |
| 20260901042721 | 80 | 0 | 0.0 | 0.0 | 0.00 | 0.17 | 0.17 | 94 | 1000.8 |
| 20260901041742 | 80 | 0 | 0.0 | 0.0 | 0.00 | 0.17 | 0.17 | 94 | 1000.7 |
| 20260901041241 | 81 | 0 | 0.0 | 0.0 | 0.00 | 0.17 | 0.17 | 94 | 1000.8 |
| 20260901041221 | 81 | 0 | 0.0 | 0.0 | 0.00 | 0.17 | 0.17 | 94 | 1000.7 |
| 20260901040237 | 81 | 0 | 0.0 | 0.0 | 0.00 | 0.17 | 0.17 | 94 | 1000.6 |
| 20260901035738 | 81 | 0 | 0.0 | 0.0 | 0.00 | 0.17 | 0.17 | 94 | 1000.5 |
| 20260901035709 | 81 | 0 | 0.0 | 0.0 | 0.00 | 0.17 | 0.17 | 94 | 1000.5 |
| 20260901034733 | 80 | 0 | 0.0 | 0.0 | 0.00 | 0.17 | 0.17 | 93 | 1000.4 |
| 20260901034233 | 80 | 0 | 0.0 | 0.0 | 0.00 | 0.17 | 0.17 | 93 | 1000.4 |
| 20260901033735 | 80 | 0 | 0.0 | 0.0 | 0.00 | 0.17 | 0.17 | 93 | 1000.3 |
| 20260901033229 | 80 | 0 | 0.0 | 0.0 | 0.00 | 0.17 | 0.17 | 93 | 1000.2 |
| 20260901032730 | 81 | 0 | 0.0 | 0.0 | 0.00 | 0.17 | 0.17 | 93 | 1000.2 |
| 20260901032230 | 81 | 0 | 0.0 | 0.0 | 0.00 | 0.17 | 0.17 | 92 | 1000.1 |
| 20260901031948 | 81 | 0 | 0.0 | 0.0 | 0.00 | 0.17 | 0.17 | 93 | 1000.0 |
| 20260901031444 | 81 | 0 | 0.0 | 0.0 | 0.00 | 0.17 | 0.17 | 92 | 1000.0 |
| 20260901030725 | 81 | 0 | 0.0 | 0.0 | 0.00 | 0.17 | 0.17 | 92 | 1000.0 |
| 20260901030227 | 81 | 0 | 0.0 | 0.0 | 0.00 | 0.17 | 0.17 | 93 | 999.9 |
| 20260901025725 | 82 | 0 | 0.0 | 0.0 | 0.00 | 0.17 | 0.17 | 93 | 999.8 |
| 20260901025225 | 82 | 0 | 0.0 | 0.0 | 0.00 | 0.17 | 0.17 | 92 | 999.8 |
| 20260901024726 | 82 | 0 | 0.0 | 0.0 | 0.00 | 0.17 | 0.17 | 92 | 999.7 |
| 20260901024225 | 82 | 0 | 0.0 | 0.0 | 0.00 | 0.17 | 0.17 | 92 | 999.7 |
| 20260901023725 | 82 | 0 | 0.0 | 0.0 | 0.00 | 0.17 | 0.17 | 92 | 999.8 |
| 20260901023227 | 82 | 0 | 0.0 | 0.0 | 0.00 | 0.17 | 0.17 | 92 | 999.7 |
| 20260901022725 | 82 | 0 | 0.0 | 0.0 | 0.00 | 0.17 | 0.17 | 92 | 999.7 |
| 20260901022225 | 82 | 0 | 0.0 | 0.0 | 0.00 | 0.17 | 0.17 | 92 | 999.5 |
| 20260901021725 | 82 | 0 | 0.0 | 0.0 | 0.00 | 0.17 | 0.17 | 92 | 999.5 |
| 20260901021225 | 82 | 0 | 0.0 | 0.0 | 0.00 | 0.17 | 0.17 | 92 | 999.5 |
| 20260901020726 | 82 | 0 | 0.0 | 0.0 | 0.00 | 0.17 | 0.17 | 92 | 999.5 |
| 20260901020225 | 82 | 0 | 0.0 | 0.0 | 0.00 | 0.17 | 0.17 | 92 | 999.5 |
| 20260901015725 | 82 | 0 | 0.0 | 0.0 | 0.00 | 0.17 | 0.17 | 92 | 999.4 |
| 20260901015225 | 82 | 0 | 0.0 | 0.0 | 0.00 | 0.17 | 0.17 | 92 | 999.3 |
| 20260901014726 | 82 | 0 | 0.0 | 0.0 | 0.00 | 0.17 | 0.17 | 91 | 999.3 |
| 20260901014225 | 82 | 0 | 0.0 | 0.0 | 0.00 | 0.17 | 0.17 | 91 | 999.3 |
| 20260901013726 | 82 | 0 | 0.0 | 0.0 | 0.00 | 0.17 | 0.17 | 91 | 999.2 |
| 20260901013450 | 82 | 0 | 0.0 | 0.0 | 0.00 | 0.17 | 0.17 | 91 | 999.2 |
| 20260901012947 | 82 | 0 | 0.0 | 0.0 | 0.00 | 0.17 | 0.17 | 91 | 999.2 |